Regional Weather Roundup
Issued by NWS Raleigh/Durham, NC

Home | Current Version | Previous Version | Text Only | Print | Product List | Glossary On
Versions: 1 2 3 4 5 6 7 8 9 10 11 12 13 14 15 16 17 18 19 20 21 22 23 24 25 26
000
ASUS42 KRAH 272010
RWRRAH
NORTH CAROLINA WEATHER ROUNDUP
NATIONAL WEATHER SERVICE RALEIGH NC
400 PM EDT THU JUL 27 2017

NOTE: "FAIR" INDICATES FEW OR NO CLOUDS BELOW 12,000 FEET WITH NO
SIGNIFICANT WEATHER AND/OR OBSTRUCTIONS TO VISIBILITY.

NCZ001-053-055-056-065-067-272100-
WESTERN NORTH CAROLINA

CITY           SKY/WX    TMP DP  RH WIND       PRES   REMARKS
ASHEVILLE      CLOUDY    76  72  87 W3        30.06F
JEFFERSON      CLOUDY    75  67  75 SW3       30.12S
HICKORY        TSTM      79  72  79 W12G18    30.03R
RUTHERFORDTON  CLOUDY    79  74  86 CALM      30.01F
MOUNT AIRY     CLOUDY    83  73  70 W3        30.02F
BOONE          CLOUDY    68  67  98 CALM      30.14S
$$

NCZ021-022-025-041-071-084-088-272100-
CENTRAL NORTH CAROLINA

CITY           SKY/WX    TMP DP  RH WIND       PRES   REMARKS
CHARLOTTE      CLOUDY    88  72  58 SW8       29.99F
GREENSBORO     CLOUDY    85  73  67 W12       29.98F
WINSTON-SALEM  CLOUDY    85  71  63 SW8       29.99F
RALEIGH-DURHAM CLOUDY    90  69  50 W9        29.95F
FORT BRAGG     MOSUNNY   90  70  51 SW7       29.95F HX  95
FAYETTEVILLE   MOSUNNY   89  70  53 S8        29.96F
BURLINGTON     CLOUDY    89  71  55 SW10      29.96F HX  95
LAURINBURG     PTSUNNY   91  74  57 W9        29.98F HX 100
$$

NCZ011-015-027-028-043-044-047-080-103-272100-
NORTHEASTERN NORTH CAROLINA

CITY           SKY/WX    TMP DP  RH WIND       PRES   REMARKS
ROCKY MT-WILSO MOSUNNY   90  70  51 SW8       29.95F HX  95
GREENVILLE     MOSUNNY   90  68  48 SW6       29.98S
WASHINGTON     MOSUNNY   88  68  51 SW7       29.97S
ELIZABETH CITY MOSUNNY   86  73  65 S9G20     29.96F
MANTEO         CLOUDY    82  69  65 S12       29.97F
CAPE HATTERAS  SUNNY     86  71  60 SW8       29.99F
$$

NCZ078-087-090-091-093-098-101-272100-
SOUTHEASTERN NORTH CAROLINA

CITY           SKY/WX    TMP DP  RH WIND       PRES   REMARKS
LUMBERTON      PTSUNNY   90  71  53 S7        29.96F HX  96
GOLDSBORO      MOSUNNY   91  66  42 SW6       29.95F
KINSTON        MOSUNNY   91  64  40 S9        29.96F
KENANSVILLE    MOSUNNY   90  68  48 S3        29.97F
NEW BERN       MOSUNNY   88  69  53 S9        29.99S
CHERRY POINT   MOSUNNY   88  69  53 SW10      29.99F
BEAUFORT       SUNNY     86  73  65 S13       29.99F
JACKSONVILLE   SUNNY     87  71  58 S13       29.98S
WILMINGTON     SUNNY     87  70  56 SE9       29.98F
$$





USA.gov is the U.S. government's official web portal to all federal, state and local government web resources and services.